This demonstration page uses our WeatherBlox Daily Observations layout. Learn more.

39.92423, -83.80882

Hourly Observations for June 15, 2016

Temp ( °F °C ) Dew Point ( °F °C ) Humidity (%) Winds ( mph kmh ) Pressure ( in mb ) Visibility ( mi km ) Precip ( " mm )
12:56 am 00:56 Clear 71 21.6 61 16.1 71 71 ESE 6 9 29.9 1013 10 16.0934 0 0
1:56 am 01:56 Clear 69 20.5 61 16.1 76 76 ESE 7 11 29.9 1012 10 16.0934 0 0
2:56 am 02:56 Clear 68 20 61 16.1 78 78 SE 5 7 29.88 1012 10 16.0934 0 0
3:56 am 03:56 Mostly Clear 67 19.4 62 16.6 84 84 SE 5 7 29.88 1012 10 16.0934 0 0
4:56 am 04:56 Clear 66 18.8 62 16.6 87 87 SE 5 7 29.88 1012 10 16.0934 0 0
5:56 am 05:56 Partly Cloudy 65 18.3 62 16.6 90 90 E 3 6 29.89 1012 10 16.0934 0 0
6:56 am 06:56 Sunny 68 20 63 17.2 84 84 SSE 3 6 29.89 1012 10 16.0934 0 0
7:56 am 07:56 Mostly Sunny 72 22.2 65 18.3 79 79 S 6 9 29.89 1012 10 16.0934 0 0
8:56 am 08:56 Sunny 74 23.3 69 20.5 84 84 SSW 5 7 29.89 1012 10 16.0934 0 0.0254
9:38 am 09:38 Partly Cloudy with Nearby Thunderstorms 77 25 70 21 79 79 SSW 6 9 29.85 1011 10 16.0934 0 0
9:56 am 09:56 Mostly Cloudy with Nearby Thunderstorms 77 25 70 21.1 79 79 SSW 14 22 29.89 1012 10 16.0934 0 0
10:01 am 10:01 Mostly Cloudy with Thunderstorms 75 24 72 22 89 89 SSW 9 15 29.88 1012 1.5 2.41401 0.07 1.778
10:03 am 10:03 Mostly Cloudy with Thunderstorms 75 24 72 22 89 89 S 9 15 29.88 1012 1 1.60934 0.09 2.286
10:14 am 10:14 Mostly Cloudy with Light Thunderstorms 72 22 72 22 100 100 SSW 8 13 29.88 1012 2 3.21868 0.11 2.794
10:16 am 10:16 Cloudy with Light Thunderstorms 72 22 72 22 100 100 S 7 11 29.88 1012 2.5 4.02335 0.14 3.556
10:18 am 10:18 Cloudy with Light Thunderstorms 72 22 72 22 100 100 SSW 10 17 29.88 1012 1.25 2.011675 0.17 4.318
10:25 am 10:25 Cloudy with Nearby Thunderstorms 72 22 72 22 100 100 SW 12 19 29.88 1012 1 1.60934 0.18 4.572
10:27 am 10:27 Cloudy with Nearby Thunderstorms 72 22 72 22 100 100 SW 9 15 29.88 1012 1.75 2.816345 0.18 4.572
10:31 am 10:31 Mostly Cloudy with Nearby Thunderstorms 73 23 73 23 100 100 SSW 9 15 29.88 1012 10 16.0934 0.18 4.572
10:40 am 10:40 Partly Cloudy 73 23 73 23 100 100 SW 10 17 29.88 1012 10 16.0934 0.18 4.572
10:56 am 10:56 Partly Cloudy 76 24.4 74 23.3 94 94 SW 12 19 29.89 1012 10 16.0934 0.18 4.572
11:56 am 11:56 Partly Cloudy 80 26.6 74 23.3 82 82 SSE 8 13 29.85 1011 10 16.0934 0 0
12:56 pm 12:56 Mostly Sunny 84 28.8 74 23.3 72 72 SSW 10 17 29.84 1011 10 16.0934 0 0
1:56 pm 13:56 Mostly Sunny 86 30 74 23.3 67 67 SSW 16 26 29.84 1010 10 16.0934 0 0
2:45 pm 14:45 Mostly Cloudy 86 30 73 23 66 66 SSW 12 19 29.8 1009 10 16.0934 0 0
2:56 pm 14:56 Mostly Cloudy 85 29.4 74 23.3 70 70 SW 13 20 29.81 1010 10 16.0934 0 0
3:27 pm 15:27 Partly Cloudy 88 31 73 23 62 62 SW 8 13 29.77 1008 10 16.0934 0 0
3:37 pm 15:37 Mostly Cloudy 86 30 75 24 70 70 SSW 7 11 29.77 1008 10 16.0934 0 0
3:48 pm 15:48 Partly Cloudy 86 30 73 23 66 66 SW 14 22 29.77 1008 10 16.0934 0 0
3:56 pm 15:56 Partly Cloudy 86 30 74 23.3 67 67 SW 14 22 29.8 1009 10 16.0934 0 0
4:56 pm 16:56 Partly Cloudy 87 30.5 75 23.8 67 67 SSW 7 11 29.77 1008 10 16.0934 0 0
5:56 pm 17:56 Sunny 87 30.5 73 22.7 63 63 SW 12 19 29.77 1008 10 16.0934 0 0
6:56 pm 18:56 Sunny 84 28.8 74 23.3 72 72 SW 10 17 29.79 1009 10 16.0934 0 0
7:25 pm 19:25 Sunny with Nearby Thunderstorms 82 28 73 23 74 74 WSW 10 17 29.77 1008 10 16.0934 0 0
7:46 pm 19:46 Mostly Cloudy with Heavy Thunderstorms 73 23 64 18 74 74 W 9 15 29.83 1010 N/A 0.17 4.318
7:56 pm 19:56 Cloudy with Heavy Thunderstorms 69 20.5 65 18.3 87 87 E 9 15 29.82 1010 1.75 2.816345 0.24 6.096
8:01 pm 20:01 Cloudy with Light Thunderstorms 68 20 64 18 88 88 S 15 24 29.8 1009 3 4.82802 0.01 0.254
8:20 pm 20:20 Partly Cloudy with Thunderstorms 70 21 66 19 88 88 N 6 9 29.8 1009 10 16.0934 0.01 0.254
8:40 pm 20:40 Sunny 70 21 66 19 88 88 Calm 29.8 1009 10 16.0934 0.01 0.254
8:56 pm 20:56 Partly Cloudy 70 21.1 69 20.5 96 96 S 6 9 29.8 1009 10 16.0934 0.01 0.254
9:56 pm 21:56 Clear 71 21.6 69 20.5 93 93 SW 7 11 29.82 1010 10 16.0934 0 0
10:56 pm 22:56 Clear 69 20.5 68 20 97 97 SSW 3 6 29.81 1009 10 16.0934 0 0
11:56 pm 23:56 Clear 67 19.4 67 19.4 100 100 WSW 7 11 29.81 1010 10 16.0934 0 0

Powered by AerisWeather